Content
SEND FEEDBACK

Daily
Averages
Monthly
Summary
United States of America

CHINOOK, MONTANA


Home > North America > United States > Montana
Elevation: 2400 feet     Latitude: 48 35N     Longitude: 109 12W

WEATHER
 
SELECT A DAY
Number of Records: 197,454;   Date Range: 1/1/95 - 12/18/14
 
SHARE

PRINT THIS DATA

[ ← Previous Day ]
WEATHER ALMANAC - JANUARY 31, 2013
[ Next Day → ]
[ °C ]   °F
Weather ElementAverageHighLow
Temperature0.4 °F9 °F (10:53 pm)-2.9 °F (12:53 am)
Dewpoint-5.7 °F3.9 °F (10:53 pm)-9.9 °F (2:53 am)
Humidity75.2 %80 % (4:53 pm)71 % (12:10 am)
Barometer30.26 in30.44 in (1:53 am)30.10 in (10:53 pm)
Wind Speed4 mph8.1 mph (1:53 pm)
Weather ElementAverage
Visibility4.8 mi
Wind DirectionSSE (155 °)

Weather ElementTotal
Precipitation0.24 in
Heating Degree Days62 (Base 65)
Averaged from 46 records on January 31, 2013
WEATHER CONDITIONS BREAKOUT
WIND DIRECTION BREAKOUT
WEATHER BY HOUR - JANUARY 31, 2013
[ °C ]   °F
Local TimeTemperatureDewpointHumidityBarometerVisibilityWind DirectionWind SpeedGust SpeedPrecipitationEventsConditions
12:10 AM-2.2 °F-9.4 °F71 %30.22 in3.0 miNNW (340°)6.9 mph0.01 inSnowLight Snow
12:53 AM-2.9 °F-9.0 °F75 %30.43 in3.0 miNNW (330°)6.9 mph0.01 inSnowLight Snow
1:15 AM-2.2 °F-9.4 °F71 %30.24 in2.5 miNorth (350°)5.8 mph0.00 inSnowLight Snow
1:25 AM-2.2 °F-9.4 °F71 %30.24 in2.0 miNNW (340°)4.6 mph0.01 inSnowLight Snow
1:33 AM-2.2 °F-9.4 °F71 %30.24 in1.8 miNNW (330°)5.8 mph0.01 inSnowLight Snow
1:44 AM-2.2 °F-9.4 °F71 %30.25 in2.5 miNW (320°)5.8 mph0.01 inSnowLight Snow
1:53 AM-2.9 °F-9.0 °F75 %30.44 in2.5 miNNW (330°)4.6 mph0.01 inSnowLight Snow
2:02 AM-2.2 °F-9.4 °F71 %30.24 in2.5 miNW (320°)5.8 mph0.01 inSnowLight Snow
2:09 AM-2.2 °F-9.4 °F71 %30.25 in4.0 miNW (320°)4.6 mph0.01 inSnowLight Snow
2:53 AM-2.9 °F-9.9 °F72 %30.42 in8.0 miWNW (300°)5.8 mph0.01 inSnowLight Snow
3:27 AM-2.2 °F-9.4 °F71 %30.24 in2.5 miWNW (300°)3.5 mph0.00 inSnowLight Snow
3:53 AM-2.9 °F-9.0 °F75 %30.43 in2.0 miCalm0.00 inSnowLight Snow
4:21 AM-2.2 °F-9.4 °F71 %30.25 in3.0 miWest (260°)3.5 mph0.01 inSnowLight Snow
4:33 AM-2.2 °F-9.4 °F71 %30.25 in2.5 miCalm0.01 inSnowLight Snow
4:43 AM-2.2 °F-9.4 °F71 %30.24 in1.5 miCalm0.01 inSnowLight Snow
4:53 AM-2.9 °F-9.0 °F75 %30.44 in1.2 miWest (270°)3.5 mph0.02 inSnowLight Snow
5:03 AM-2.2 °F-9.4 °F71 %30.25 in1.8 miWest (260°)4.6 mph0.00 inSnowLight Snow
5:11 AM-2.2 °F-9.4 °F71 %30.25 in2.0 miWest (270°)3.5 mph0.00 inSnowLight Snow
5:22 AM-2.2 °F-9.4 °F71 %30.23 in3.0 miWSW (240°)4.6 mph0.00 inSnowLight Snow
5:53 AM-2.9 °F-9.0 °F75 %30.41 in3.0 miWSW (240°)4.6 mph0.00 inSnowLight Snow
5:58 AM-2.2 °F-9.4 °F71 %30.22 in2.5 miSW (230°)5.8 mph0.00 inSnowLight Snow
6:07 AM-2.2 °F-7.6 °F78 %30.22 in2.5 miSW (230°)3.5 mph0.01 inSnowLight Snow
6:16 AM-2.2 °F-7.6 °F78 %30.22 in3.0 miWSW (240°)3.5 mph0.01 inSnowLight Snow
6:25 AM-2.2 °F-7.6 °F78 %30.23 in2.0 miWest (260°)3.5 mph0.01 inSnowLight Snow
6:34 AM-2.2 °F-7.6 °F78 %30.22 in2.0 miCalm0.01 inSnowLight Snow
6:53 AM-2.0 °F-7.1 °F79 %30.40 in2.0 miCalm0.02 inSnowLight Snow
7:02 AM-2.2 °F-7.6 °F78 %30.21 in1.5 miCalm0.00 inSnowLight Snow
7:40 AM-0.4 °F-5.8 °F78 %30.20 in2.0 miCalm0.01 inSnowLight Snow
7:53 AM-0.9 °F-7.1 °F75 %30.39 in1.2 miCalm0.01 inSnowLight Snow
8:53 AM0.0 °F-6.0 °F76 %30.39 in2.0 miENE (70°)4.6 mph0.02 inSnowLight Snow
8:56 AM-0.4 °F-5.8 °F78 %30.19 in3.0 miEast (80°)4.6 mph0.00 inSnowLight Snow
9:53 AM1.0 °F-5.1 °F75 %30.37 in10.0 miEast (100°)6.9 mph0.00 inOvercast
10:53 AM1.9 °F-4.0 °F76 %30.35 in5.0 miCalm0.00 inSnowLight Snow
11:53 AM3.9 °F-2.0 °F76 %30.31 in10.0 miCalm0.00 inOvercast
12:53 PM5.0 °F-0.9 °F76 %30.29 in10.0 miEast (80°)4.6 mphOvercast
1:53 PM5.0 °F-0.9 °F76 %30.27 in10.0 miEast (80°)8.1 mphOvercast
2:53 PM7.0 °F1.0 °F77 %30.24 in10.0 miENE (70°)8.1 mphOvercast
3:53 PM7.0 °F1.0 °F77 %30.22 in10.0 miEast (80°)8.1 mphOvercast
4:53 PM6.1 °F1.0 °F80 %30.20 in10.0 miENE (60°)8.1 mphOvercast
5:53 PM5.0 °F0.0 °F80 %30.20 in10.0 miEast (80°)4.6 mphPartly Cloudy
6:53 PM5.0 °F0.0 °F80 %30.17 in10.0 miNE (50°)5.8 mphClear
7:53 PM6.1 °F1.0 °F80 %30.16 in10.0 miENE (70°)5.8 mphOvercast
8:53 PM7.0 °F1.9 °F80 %30.13 in10.0 miCalmOvercast
9:53 PM8.1 °F3.0 °F80 %30.11 in10.0 miESE (110°)3.5 mphMostly Cloudy
10:53 PM9.0 °F3.9 °F80 %30.10 in10.0 miNNE (20°)4.6 mphMostly Cloudy
11:53 PM8.1 °F3.0 °F80 %30.11 in10.0 miEast (100°)4.6 mphOvercast
Hourly data recorded from KHVR, located miles away from Chinook, Montana







STORIES FROM OUR PARTNERS